Location: Unspecified
(51.0000°N, 12.0000°E)
Time: 06:56:08
(UTC+01:00)

N. Korean satellite - Visible Passes

Search period start: 25 November 2017 00:00
Search period end: 05 December 2017 00:00
Orbit: 460 x 514 km, 97.2° (Epoch: 24 November)

Date Brightness Start Highest point End Pass type
(mag) Time Alt. Az. Time Alt. Az. Time Alt. Az.
25 Nov 8.3 06:40:47 10° NNE 06:44:20 39° E 06:47:53 10° SSE visible
25 Nov 7.2 17:22:01 10° SE 17:25:14 32° ENE 17:28:31 10° N visible
25 Nov 9.1 18:55:57 10° SSW 18:58:49 23° W 19:01:45 10° NW visible
26 Nov 9.4 06:17:39 10° NE 06:20:42 23° E 06:23:44 10° SSE visible
26 Nov 7.9 16:59:15 10° ESE 17:01:54 20° ENE 17:04:36 10° NNE visible
26 Nov 7.9 18:31:48 10° S 18:35:11 40° W 18:38:39 10° NNW visible
27 Nov 10.0 05:55:02 10° ENE 05:56:59 14° E 05:58:55 10° ESE visible
27 Nov 6.7 18:08:02 10° S 18:11:37 76° W 18:15:17 10° NNW visible
28 Nov 7.0 07:03:37 10° NNE 07:07:24 72° ESE 07:11:10 10° S visible
28 Nov 6.6 17:44:35 10° SSE 17:48:07 58° ENE 17:51:44 10° N visible
28 Nov 9.9 19:20:11 10° WSW 19:22:02 13° W 19:23:54 10° WNW visible
29 Nov 8.3 06:40:16 10° NNE 06:43:50 39° E 06:47:23 10° SSE visible
29 Nov 7.3 17:21:27 10° SE 17:24:42 32° ENE 17:28:01 10° N visible
29 Nov 9.1 18:55:22 10° SSW 18:58:17 23° W 19:01:16 10° NW visible
30 Nov 9.4 06:17:08 10° NE 06:20:11 23° E 06:23:12 10° SSE visible
30 Nov 7.9 16:58:40 10° ESE 17:01:21 20° ENE 17:04:05 10° NNE visible
30 Nov 7.9 18:31:12 10° S 18:34:37 40° W 18:38:08 10° NNW visible
01 Dec 10.0 05:54:30 10° ENE 05:56:27 13° E 05:58:22 10° ESE visible
01 Dec 6.7 18:07:26 10° S 18:11:02 76° WSW 18:14:45 10° NNW visible
02 Dec 7.0 07:03:04 10° NNE 07:06:51 72° ESE 07:10:36 10° S visible
02 Dec 6.6 17:43:58 10° SSE 17:47:32 58° ENE 17:51:12 10° N visible
02 Dec 9.9 19:19:31 10° WSW 19:21:26 14° W 19:23:24 10° NW visible
03 Dec 8.3 06:39:41 10° NNE 06:43:16 39° E 06:46:48 10° SSE visible
03 Dec 7.3 17:20:49 10° SE 17:24:06 32° ENE 17:27:28 10° N visible
03 Dec 9.0 18:54:42 10° SSW 18:57:41 23° W 19:00:44 10° NW visible
04 Dec 9.4 06:16:32 10° NE 06:19:35 23° E 06:22:36 10° SSE visible
04 Dec 7.9 16:58:02 10° ESE 17:00:45 20° ENE 17:03:30 10° NNE visible
04 Dec 7.9 18:30:33 10° S 18:34:01 41° W 18:37:34 10° NNW visible
